Location: Riedlingen
(48.1569°N, 9.4757°E)
Time: 18:22:44
(UTC+02:00)

ISS - Pass Details

Date: 09 January 2018
Orbit: 401 x 409 km, 51.6° (Epoch: 22 August)

Event Time Altitude Azimuth Distance (km) Brightness Sun altitude
Exits shadow 07:25:28 10° 288° (WNW) 1,533 -1.6 -7.5°
Reaches altitude 10° 07:25:31 10° 288° (WNW) 1,511 -1.6 -7.5°
Maximum altitude 07:28:52 56° 209° (SSW) 509 -3.4 -7.0°
Drops below altitude 10° 07:32:12 10° 131° (SE) 1,513 0.6 -6.5°
Sets 07:34:19 0° 127° (SE) 2,378 2.3 -6.1°
